This demonstration page uses our WeatherBlox Daily Observations layout. Learn more.

Left ArrowRight Arrow

53.62937, 11.41316

Hourly Observations for October 28, 2015

Temp ( °F °C ) Dew Point ( °F °C ) Humidity (%) Winds ( mph kmh ) Pressure ( in mb ) Visibility ( mi km ) Precip ( " mm )
5:20 am 05:20 Mostly Clear with Mist and Fog 41 5 39 4 93 93 E 9 15 30.03 1017 1 2 N/A
5:50 am 05:50 Mostly Clear with Mist and Fog 41 5 41 5 100 100 E 8 13 30.00 1016 1 2 N/A
6:20 am 06:20 Mostly Clear with Mist and Fog 41 5 41 5 100 100 E 8 13 30.00 1016 1 2 N/A
6:50 am 06:50 Mostly Clear with Mist and Fog 41 5 39 4 93 93 E 7 11 30.00 1016 2 3 N/A
7:20 am 07:20 Partly Cloudy with Mist and Fog 41 5 41 5 100 100 E 9 15 30.00 1016 2 3 N/A
7:50 am 07:50 Partly Cloudy with Mist and Fog 41 5 39 4 93 93 E 10 17 30.03 1017 3 4 N/A
8:20 am 08:20 Partly Cloudy with Mist and Fog 41 5 39 4 93 93 E 9 15 30.03 1017 3 5 N/A
8:50 am 08:50 Mostly Sunny 43 6 39 4 87 87 E 10 17 30.03 1017 4 6 N/A
9:20 am 09:20 Mostly Sunny 43 6 39 4 87 87 E 14 22 30.00 1016 4 7 N/A
9:50 am 09:50 Mostly Sunny 45 7 39 4 81 81 E 13 20 30.00 1016 5 8 N/A
10:20 am 10:20 Mostly Sunny 46 8 41 5 82 82 ENE 14 22 30.00 1016 7 11 N/A
10:50 am 10:50 Mostly Sunny 46 8 39 4 76 76 E 16 26 30.00 1016 7 11 N/A
11:20 am 11:20 Mostly Sunny 48 9 41 5 76 76 E 14 22 30.00 1016 7 11 N/A
11:50 am 11:50 Mostly Sunny 50 10 41 5 71 71 E 12 19 29.97 1015 7 11 N/A
12:20 pm 12:20 Mostly Sunny 50 10 41 5 71 71 E 12 19 29.97 1015 7 11 N/A
12:50 pm 12:50 Mostly Sunny 52 11 41 5 67 67 E 13 20 29.97 1015 7 11 N/A
1:50 pm 13:50 Mostly Sunny 52 11 43 6 72 72 E 12 19 29.94 1014 7 11 N/A
2:20 pm 14:20 Mostly Sunny 52 11 43 6 72 72 E 12 19 29.94 1014 7 11 N/A
2:50 pm 14:50 Mostly Sunny 52 11 43 6 72 72 E 12 19 29.94 1014 7 11 N/A
3:20 pm 15:20 Mostly Sunny 52 11 43 6 72 72 E 13 20 29.94 1014 7 11 N/A
3:50 pm 15:50 Mostly Sunny 52 11 43 6 72 72 E 9 15 29.94 1014 7 11 N/A
4:20 pm 16:20 Mostly Sunny 50 10 43 6 76 76 E 9 15 29.94 1014 7 11 N/A
4:50 pm 16:50 Mostly Clear 48 9 43 6 82 82 E 7 11 29.94 1014 30 48 N/A
5:20 pm 17:20 Partly Cloudy 46 8 43 6 87 87 E 7 11 29.94 1014 30 48 N/A
5:50 pm 17:50 Partly Cloudy 46 8 41 5 82 82 E 7 11 29.94 1014 6 9 N/A

Powered by AerisWeather